2015-03-09 00:03:31 r, 17.02m,0000000014Hz,0000033755c,0000000.073s, 018.6C,00002195
2015-03-09 00:13:31 r, 16.81m,0000000016Hz,0000027613c,0000000.060s, 018.6C,00002195
2015-03-09 00:23:31 r, 16.92m,0000000015Hz,0000030682c,0000000.067s, 018.6C,00002195
2015-03-09 00:33:31 r, 16.45m,0000000023Hz,0000019947c,0000000.043s, 018.6C,00002195
2015-03-09 00:43:31 r, 16.37m,0000000025Hz,0000018534c,0000000.040s, 018.6C,00002195
2015-03-09 00:53:31 r, 16.45m,0000000023Hz,0000019888c,0000000.043s, 018.6C,00002195
2015-03-09 01:03:31 r, 16.47m,0000000023Hz,0000020231c,0000000.044s, 018.6C,00002195
2015-03-09 01:13:31 r, 16.57m,0000000021Hz,0000022029c,0000000.048s, 018.3C,00002195
2015-03-09 01:23:31 r, 16.73m,0000000018Hz,0000025639c,0000000.056s, 018.3C,00002195
2015-03-09 01:33:31 r, 16.33m,0000000027Hz,0000017737c,0000000.038s, 018.0C,00002195
2015-03-09 01:43:31 r, 16.69m,0000000019Hz,0000024773c,0000000.054s, 017.7C,00002195
2015-03-09 01:53:31 r, 16.37m,0000000025Hz,0000018390c,0000000.040s, 017.7C,00002195
2015-03-09 02:03:31 r, 16.48m,0000000022Hz,0000020374c,0000000.044s, 017.7C,00002195
2015-03-09 02:13:31 r, 16.43m,0000000023Hz,0000019466c,0000000.042s, 017.4C,00002195
2015-03-09 02:23:31 r, 16.02m,0000000035Hz,0000013330c,0000000.029s, 017.4C,00002195
2015-03-09 02:33:31 r, 16.44m,0000000024Hz,0000019684c,0000000.043s, 017.4C,00002195
2015-03-09 02:43:31 r, 17.56m,0000000009Hz,0000054972c,0000000.119s, 017.4C,00002195
2015-03-09 02:53:31 r, 17.71m,0000000007Hz,0000063320c,0000000.137s, 017.0C,00002195
2015-03-09 03:03:31 r, 17.71m,0000000008Hz,0000063454c,0000000.138s, 016.7C,00002195
2015-03-09 03:13:31 r, 17.71m,0000000007Hz,0000063043c,0000000.137s, 016.4C,00002195
2015-03-09 03:23:31 r, 17.69m,0000000007Hz,0000061491c,0000000.133s, 016.4C,00002195
2015-03-09 03:33:31 r, 17.69m,0000000008Hz,0000061624c,0000000.134s, 016.1C,00002195
2015-03-09 03:43:31 r, 17.69m,0000000007Hz,0000061549c,0000000.134s, 016.1C,00002195
2015-03-09 03:53:31 r, 17.69m,0000000008Hz,0000061579c,0000000.134s, 015.7C,00002195
2015-03-09 04:03:31 r, 17.69m,0000000007Hz,0000061513c,0000000.133s, 015.7C,00002195
2015-03-09 04:13:31 r, 17.70m,0000000008Hz,0000062368c,0000000.135s, 015.7C,00002195
2015-03-09 04:23:31 r, 17.72m,0000000008Hz,0000063304c,0000000.137s, 015.4C,00002195
2015-03-09 04:33:31 r, 17.72m,0000000007Hz,0000063365c,0000000.138s, 015.4C,00002195
2015-03-09 04:43:31 r, 17.74m,0000000007Hz,0000064415c,0000000.140s, 015.4C,00002195
2015-03-09 04:53:31 r, 17.74m,0000000007Hz,0000064281c,0000000.139s, 015.1C,00002195
2015-03-09 05:03:31 r, 17.74m,0000000007Hz,0000064345c,0000000.140s, 015.1C,00002195
2015-03-09 05:13:31 r, 17.74m,0000000007Hz,0000064718c,0000000.140s, 015.1C,00002195
2015-03-09 05:23:31 r, 17.75m,0000000007Hz,0000065269c,0000000.142s, 015.1C,00002195
2015-03-09 05:33:31 r, 17.76m,0000000007Hz,0000066391c,0000000.144s, 014.8C,00002195
2015-03-09 05:43:31 r, 17.77m,0000000007Hz,0000066961c,0000000.145s, 014.8C,00002195
2015-03-09 05:53:31 r, 17.76m,0000000006Hz,0000066339c,0000000.144s, 014.8C,00002195
2015-03-09 06:03:31 r, 17.76m,0000000007Hz,0000066253c,0000000.144s, 014.8C,00002195
2015-03-09 06:13:31 r, 17.76m,0000000007Hz,0000066334c,0000000.144s, 014.8C,00002195
2015-03-09 06:23:32 r, 17.76m,0000000007Hz,0000066309c,0000000.144s, 014.5C,00002195
2015-03-09 06:33:32 r, 17.75m,0000000007Hz,0000065502c,0000000.142s, 014.5C,00002195
2015-03-09 06:43:32 r, 17.68m,0000000008Hz,0000061306c,0000000.133s, 014.1C,00002195
2015-03-09 06:53:32 r, 17.41m,0000000009Hz,0000048091c,0000000.104s, 014.1C,00002195
2015-03-09 07:03:32 r, 16.69m,0000000019Hz,0000024819c,0000000.054s, 014.1C,00002195
2015-03-09 07:13:32 r, 15.21m,0000000072Hz,0000006318c,0000000.014s, 013.8C,00002195
2015-03-09 07:23:32 r, 13.15m,0000000491Hz,0000000000c,0000000.000s, 013.8C,00002195
2015-03-09 07:33:32 r, 11.01m,0000003509Hz,0000000000c,0000000.000s, 013.8C,00002195
2015-03-09 07:43:32 r, 09.17m,0000019121Hz,0000000000c,0000000.000s, 013.5C,00002195
2015-03-09 07:53:32 r, 07.81m,0000067189Hz,0000000000c,0000000.000s, 013.5C,00002195
2015-03-09 08:03:32 r, 06.83m,0000165049Hz,0000000000c,0000000.000s, 013.5C,00002195
2015-03-09 08:13:32 r, 06.21m,0000293286Hz,0000000000c,0000000.000s, 013.5C,00002195
2015-03-09 08:23:32 r, 00.00m,0000427830Hz,0000000000c,0000000.000s, 013.5C,00002195
2015-03-09 08:33:32 r, 00.00m,0000557958Hz,0000000000c,0000000.000s, 013.8C,00002195
2015-03-09 08:43:32 r, 00.00m,0000562345Hz,0000000000c,0000000.000s, 013.8C,00002195
2015-03-09 08:53:32 r, 00.00m,0000562377Hz,0000000000c,0000000.000s, 014.1C,00002195
2015-03-09 09:03:32 r, 00.00m,0000562419Hz,0000000000c,0000000.000s, 014.5C,00002195
2015-03-09 09:13:32 r, 00.00m,0000562431Hz,0000000000c,0000000.000s, 014.8C,00002195
2015-03-09 09:23:32 r, 00.00m,0000562546Hz,0000000000c,0000000.000s, 015.1C,00002195
2015-03-09 09:33:32 r, 00.00m,0000562764Hz,0000000000c,0000000.000s, 017.0C,00002195
2015-03-09 09:43:32 r, 00.00m,0000562893Hz,0000000000c,0000000.000s, 018.3C,00002195
2015-03-09 09:53:32 r, 00.00m,0000563091Hz,0000000000c,0000000.000s, 019.9C,00002195
2015-03-09 10:03:32 r, 00.00m,0000563199Hz,0000000000c,0000000.000s, 020.9C,00002195
2015-03-09 10:13:32 r, 00.00m,0000563347Hz,0000000000c,0000000.000s, 021.9C,00002195
2015-03-09 10:23:32 r, 00.00m,0000563488Hz,0000000000c,0000000.000s, 023.2C,00002195
2015-03-09 10:33:32 r, 00.00m,0000563634Hz,0000000000c,0000000.000s, 023.8C,00002195
2015-03-09 10:43:32 r, 00.00m,0000563689Hz,0000000000c,0000000.000s, 024.4C,00002195
2015-03-09 10:53:32 r, 00.00m,0000563783Hz,0000000000c,0000000.000s, 025.1C,00002195
2015-03-09 11:03:32 r, 00.00m,0000563788Hz,0000000000c,0000000.000s, 025.1C,00002195
2015-03-09 11:13:32 r, 00.00m,0000563915Hz,0000000000c,0000000.000s, 026.1C,00002195
2015-03-09 11:23:32 r, 00.00m,0000564146Hz,0000000000c,0000000.000s, 027.3C,00002195
2015-03-09 11:33:32 r, 00.00m,0000564279Hz,0000000000c,0000000.000s, 029.0C,00002195
2015-03-09 11:43:32 r, 00.00m,0000564298Hz,0000000000c,0000000.000s, 029.9C,00002195
2015-03-09 11:53:32 r, 00.00m,0000564432Hz,0000000000c,0000000.000s, 030.6C,00002195
2015-03-09 12:03:32 r, 00.00m,0000564417Hz,0000000000c,0000000.000s, 031.2C,00002195
2015-03-09 12:13:32 r, 00.00m,0000564551Hz,0000000000c,0000000.000s, 031.9C,00002195
2015-03-09 12:23:32 r, 00.00m,0000564564Hz,0000000000c,0000000.000s, 031.9C,00002195
2015-03-09 12:33:32 r, 00.00m,0000564347Hz,0000000000c,0000000.000s, 030.6C,00002195
2015-03-09 12:43:32 r, 00.00m,0000564295Hz,0000000000c,0000000.000s, 029.3C,00002195
2015-03-09 12:53:32 r, 00.00m,0000564191Hz,0000000000c,0000000.000s, 028.6C,00002195
2015-03-09 13:03:32 r, 00.00m,0000564039Hz,0000000000c,0000000.000s, 028.0C,00002195
2015-03-09 13:13:32 r, 00.00m,0000564334Hz,0000000000c,0000000.000s, 029.0C,00002195
2015-03-09 13:23:32 r, 00.00m,0000564256Hz,0000000000c,0000000.000s, 029.3C,00002195
2015-03-09 13:33:32 r, 00.00m,0000564244Hz,0000000000c,0000000.000s, 029.6C,00002195
2015-03-09 13:43:32 r, 00.00m,0000564217Hz,0000000000c,0000000.000s, 029.0C,00002195
2015-03-09 13:53:32 r, 00.00m,0000564054Hz,0000000000c,0000000.000s, 028.3C,00002195
2015-03-09 14:03:32 r, 00.00m,0000564046Hz,0000000000c,0000000.000s, 028.3C,00002195
2015-03-09 14:13:32 r, 00.00m,0000564013Hz,0000000000c,0000000.000s, 028.3C,00002195
2015-03-09 14:23:32 r, 00.00m,0000564083Hz,0000000000c,0000000.000s, 028.0C,00002195
2015-03-09 14:33:32 r, 00.00m,0000564105Hz,0000000000c,0000000.000s, 028.3C,00002195
2015-03-09 14:43:32 r, 00.00m,0000564131Hz,0000000000c,0000000.000s, 028.0C,00002195
2015-03-09 14:53:32 r, 00.00m,0000563981Hz,0000000000c,0000000.000s, 027.7C,00002195
2015-03-09 15:03:32 r, 00.00m,0000564019Hz,0000000000c,0000000.000s, 027.3C,00002195
2015-03-09 15:13:32 r, 00.00m,0000563949Hz,0000000000c,0000000.000s, 027.0C,00002195
2015-03-09 15:23:32 r, 00.00m,0000563916Hz,0000000000c,0000000.000s, 027.3C,00002195
2015-03-09 15:33:32 r, 00.00m,0000563892Hz,0000000000c,0000000.000s, 027.0C,00002195
2015-03-09 15:43:32 r, 00.00m,0000563816Hz,0000000000c,0000000.000s, 026.7C,00002195
2015-03-09 15:53:32 r, 00.00m,0000563782Hz,0000000000c,0000000.000s, 026.4C,00002195
2015-03-09 16:03:32 r, 00.00m,0000563759Hz,0000000000c,0000000.000s, 026.1C,00002195
2015-03-09 16:13:32 r, 00.00m,0000563762Hz,0000000000c,0000000.000s, 026.1C,00002195
2015-03-09 16:23:32 r, 00.00m,0000563762Hz,0000000000c,0000000.000s, 026.1C,00002195
2015-03-09 16:33:32 r, 00.00m,0000563751Hz,0000000000c,0000000.000s, 026.4C,00002195
2015-03-09 16:43:32 r, 00.00m,0000563828Hz,0000000000c,0000000.000s, 026.7C,00002195
2015-03-09 16:53:32 r, 00.00m,0000563946Hz,0000000000c,0000000.000s, 027.3C,00002195
2015-03-09 17:03:32 r, 00.00m,0000563918Hz,0000000000c,0000000.000s, 028.0C,00002195
2015-03-09 17:13:32 r, 00.00m,0000564003Hz,0000000000c,0000000.000s, 028.3C,00002195
2015-03-09 17:23:32 r, 00.00m,0000563958Hz,0000000000c,0000000.000s, 028.3C,00002195
2015-03-09 17:33:32 r, 00.00m,0000563834Hz,0000000000c,0000000.000s, 027.3C,00002195
2015-03-09 17:43:32 r, 00.00m,0000563702Hz,0000000000c,0000000.000s, 026.7C,00002195
2015-03-09 17:53:32 r, 00.00m,0000563654Hz,0000000000c,0000000.000s, 026.4C,00002195
2015-03-09 18:03:32 r, 00.00m,0000563658Hz,0000000000c,0000000.000s, 026.1C,00002195
2015-03-09 18:13:32 r, 00.00m,0000563653Hz,0000000000c,0000000.000s, 026.4C,00002195
2015-03-09 18:23:32 r, 00.00m,0000563653Hz,0000000000c,0000000.000s, 026.4C,00002195
2015-03-09 18:33:32 r, 00.00m,0000563538Hz,0000000000c,0000000.000s, 025.7C,00002195
2015-03-09 18:43:32 r, 00.00m,0000563561Hz,0000000000c,0000000.000s, 025.1C,00002195
2015-03-09 18:53:32 r, 00.00m,0000563538Hz,0000000000c,0000000.000s, 024.8C,00002195
2015-03-09 19:03:32 r, 06.33m,0000261879Hz,0000000000c,0000000.000s, 024.1C,00002195
2015-03-09 19:13:32 r, 06.76m,0000175768Hz,0000000000c,0000000.000s, 023.5C,00002195
2015-03-09 19:23:32 r, 07.61m,0000080419Hz,0000000000c,0000000.000s, 022.8C,00002195
2015-03-09 19:33:32 r, 08.87m,0000025116Hz,0000000000c,0000000.000s, 022.5C,00002195
2015-03-09 19:43:32 r, 10.70m,0000004692Hz,0000000000c,0000000.000s, 021.9C,00002195
2015-03-09 19:53:32 r, 12.79m,0000000686Hz,0000000000c,0000000.000s, 021.5C,00002195
2015-03-09 20:03:32 r, 14.98m,0000000089Hz,0000005150c,0000000.011s, 021.2C,00002195
2015-03-09 20:13:32 r, 16.37m,0000000025Hz,0000018223c,0000000.040s, 021.2C,00002195
2015-03-09 20:23:32 r, 16.66m,0000000019Hz,0000024056c,0000000.052s, 020.9C,00002195
2015-03-09 20:33:32 r, 16.57m,0000000021Hz,0000022032c,0000000.048s, 020.9C,00002195
2015-03-09 20:43:32 r, 16.32m,0000000026Hz,0000017593c,0000000.038s, 020.9C,00002195
2015-03-09 20:53:32 r, 17.35m,0000000011Hz,0000045255c,0000000.098s, 020.6C,00002195
2015-03-09 21:03:32 r, 18.15m,0000000005Hz,0000095014c,0000000.206s, 020.6C,00002195
2015-03-09 21:13:32 r, 17.99m,0000000006Hz,0000082030c,0000000.178s, 020.3C,00002195
2015-03-09 21:23:32 r, 18.14m,0000000005Hz,0000094029c,0000000.204s, 020.3C,00002195
2015-03-09 21:33:32 r, 18.03m,0000000005Hz,0000085344c,0000000.185s, 020.3C,00002195
2015-03-09 21:43:32 r, 17.74m,0000000007Hz,0000065171c,0000000.141s, 020.3C,00002195
2015-03-09 21:53:32 r, 16.33m,0000000026Hz,0000017803c,0000000.039s, 020.3C,00002195
2015-03-09 22:03:32 r, 16.99m,0000000015Hz,0000032450c,0000000.070s, 020.3C,00002195
2015-03-09 22:13:32 r, 16.80m,0000000016Hz,0000027435c,0000000.060s, 020.6C,00002195
2015-03-09 22:23:32 r, 17.19m,0000000011Hz,0000039039c,0000000.085s, 020.3C,00002195
2015-03-09 22:33:32 r, 17.13m,0000000012Hz,0000037175c,0000000.081s, 020.3C,00002195
2015-03-09 22:43:32 r, 17.21m,0000000012Hz,0000039691c,0000000.086s, 020.3C,00002195
2015-03-09 22:53:32 r, 16.80m,0000000016Hz,0000027296c,0000000.059s, 020.3C,00002195
2015-03-09 23:03:32 r, 17.35m,0000000010Hz,0000045135c,0000000.098s, 020.3C,00002195
2015-03-09 23:13:32 r, 17.80m,0000000006Hz,0000069013c,0000000.150s, 020.3C,00002195
2015-03-09 23:23:32 r, 16.58m,0000000021Hz,0000022357c,0000000.049s, 020.3C,00002195
2015-03-09 23:33:32 r, 16.00m,0000000035Hz,0000013108c,0000000.028s, 020.3C,00002195
2015-03-09 23:43:32 r, 15.69m,0000000047Hz,0000009885c,0000000.021s, 020.3C,00002195
2015-03-09 23:53:32 r, 15.71m,0000000046Hz,0000010110c,0000000.022s, 020.6C,00002195
